This demonstration page uses our WeatherBlox Daily Observations layout. Learn more.

Left ArrowRight Arrow

39.92423, -83.80882

Hourly Observations for December 7, 2022

Temp ( °F °C ) Dew Point ( °F °C ) Humidity (%) Winds ( mph kmh ) Pressure ( in mb ) Visibility ( mi km ) Precip ( " mm )
12:10 am 00:10 Cloudy with Fog 48 9 N/A N/A E 5 7 30.04 1017 1 1 0.01 0.13
12:33 am 00:33 Cloudy with Mist and Fog 48 9 N/A N/A Calm 30.04 1017 1 1 0.01 0.13
12:43 am 00:43 Cloudy with Mist and Fog 48 9 N/A N/A Calm 30.04 1017 1 1 0.01 0.13
12:56 am 00:56 Cloudy with Light Rain 49 9.4 N/A N/A NE 3 6 30.03 1017 1 1 0.01 0.13
1:34 am 01:34 Cloudy with Mist and Fog 48 9 N/A N/A Calm 30.04 1017 1 2 0.01 0.13
1:41 am 01:41 Cloudy with Mist and Fog 48 9 N/A N/A NE 3 6 30.04 1017 1 1 0.01 0.13
1:56 am 01:56 Cloudy with Mist and Fog 50 10 N/A N/A Calm 30.04 1017 1 2 0.01 0.13
2:06 am 02:06 Cloudy with Mist and Fog 48 9 N/A N/A NNW 5 7 30.05 1017 1 1 0.00 0.00
2:15 am 02:15 Cloudy with Light Rain 50 10 N/A N/A Calm 30.04 1017 1 1 0.01 0.13
2:56 am 02:56 Cloudy with Light Rain 49 9.4 N/A N/A Calm 30.05 1018 1 1 0.01 0.13
3:56 am 03:56 Cloudy with Fog 49 9.4 N/A N/A NW 3 6 30.06 1018 1 1 0.01 0.25
4:56 am 04:56 Cloudy with Fog 49 9.4 N/A N/A Calm 30.07 1018 1 1 0.00 0.00
5:07 am 05:07 Cloudy with Fog 48 9 N/A N/A W 3 6 30.09 1019 0 0 0.00 0.00
5:40 am 05:40 Cloudy with Fog 48 9 N/A N/A WSW 5 7 30.10 1019 0 0 0.00 0.00
5:56 am 05:56 Cloudy with Fog 48 8.9 N/A N/A WSW 5 7 30.10 1019 0 0 0.00 0.00
6:23 am 06:23 Cloudy with Fog 48 9 N/A N/A NW 3 6 30.10 1019 1 1 0.00 0.00
6:33 am 06:33 Cloudy with Fog 48 9 N/A N/A NNW 3 6 30.10 1019 0 0 0.00 0.00
6:56 am 06:56 Cloudy with Fog 49 9.4 N/A N/A NW 6 9 30.11 1020 1 1 0.00 0.00
7:34 am 07:34 Cloudy with Mist and Fog 48 9 N/A N/A WNW 7 11 30.14 1021 1 2 0.00 0.00
7:45 am 07:45 Cloudy with Mist and Fog 48 9 N/A N/A WNW 6 9 30.14 1021 1 1 0.00 0.00
7:56 am 07:56 Cloudy with Fog 49 9.4 N/A N/A NW 7 11 30.14 1021 0 0 0.00 0.00
8:05 am 08:05 Cloudy with Fog 48 9 N/A N/A NW 5 7 30.15 1021 1 1 0.00 0.00
8:12 am 08:12 Cloudy with Fog 48 9 N/A N/A Calm 30.15 1021 0 0 0.00 0.00
8:56 am 08:56 Cloudy with Fog 49 9.4 N/A N/A W 5 7 30.16 1021 0 0 0.00 0.00
9:32 am 09:32 Cloudy with Fog 48 9 N/A N/A WNW 3 6 30.18 1022 1 1 0.00 0.00
9:47 am 09:47 Cloudy with Fog 48 9 N/A N/A W 3 6 30.18 1022 0 0 0.00 0.00
9:56 am 09:56 Cloudy with Fog 49 9.4 N/A N/A W 3 6 30.18 1022 0 0 0.00 0.00
10:26 am 10:26 Cloudy with Mist and Fog 48 9 N/A N/A W 6 9 30.20 1023 1 1 0.00 0.00
10:30 am 10:30 Cloudy with Mist and Fog 48 9 N/A N/A W 6 9 30.20 1023 1 2 0.00 0.00
10:47 am 10:47 Cloudy with Mist and Fog 48 9 N/A N/A WNW 6 9 30.20 1023 2 3 0.00 0.00
10:56 am 10:56 Cloudy with Mist and Fog 49 9.4 N/A N/A WNW 7 11 30.19 1023 3 5 0.00 0.00
11:09 am 11:09 Cloudy with Mist and Fog 48 9 N/A N/A NW 7 11 30.20 1023 3 4 0.00 0.00
11:19 am 11:19 Cloudy with Mist and Fog 48 9 N/A N/A WNW 7 11 30.20 1023 2 2 0.00 0.00
11:35 am 11:35 Cloudy with Mist and Fog 48 9 N/A N/A WNW 7 11 30.20 1023 1 2 0.00 0.00
11:44 am 11:44 Cloudy with Mist and Fog 48 9 N/A N/A WNW 9 15 30.20 1023 1 2 0.00 0.00
11:51 am 11:51 Cloudy with Mist and Fog 48 9 N/A N/A WNW 8 13 30.20 1023 1 2 0.00 0.00
11:56 am 11:56 Cloudy with Mist and Fog 48 8.9 N/A N/A NW 10 17 30.21 1023 1 2 0.00 0.00
12:09 pm 12:09 Cloudy with Mist and Fog 48 9 N/A N/A NW 8 13 30.20 1023 1 1 0.00 0.00
12:20 pm 12:20 Cloudy with Fog 48 9 N/A N/A WNW 8 13 30.22 1023 1 1 0.00 0.00
12:28 pm 12:28 Cloudy with Mist and Fog 48 9 N/A N/A NW 7 11 30.22 1023 1 1 0.00 0.00
12:44 pm 12:44 Cloudy with Mist and Fog 48 9 N/A N/A WNW 7 11 30.20 1023 1 2 0.00 0.00
12:56 pm 12:56 Cloudy with Mist and Fog 48 8.9 N/A N/A WNW 7 11 30.20 1023 1 1 0.00 0.00
1:10 pm 13:10 Cloudy with Mist and Fog 48 9 N/A N/A NW 5 7 30.20 1023 1 2 0.00 0.00
1:25 pm 13:25 Cloudy with Mist and Fog 48 9 N/A N/A NW 7 11 30.20 1023 3 4 0.00 0.00
1:40 pm 13:40 Cloudy with Mist and Fog 48 9 N/A N/A NW 6 9 30.20 1023 1 2 0.00 0.00
1:43 pm 13:43 Cloudy with Mist and Fog 48 9 N/A N/A NNW 6 9 30.20 1023 1 1 0.00 0.00
1:51 pm 13:51 Cloudy with Mist and Fog 48 9 N/A N/A NW 7 11 30.20 1023 1 2 0.00 0.00
1:56 pm 13:56 Cloudy with Mist and Fog 48 8.9 N/A N/A NW 5 7 30.20 1023 2 3 0.00 0.00
2:56 pm 14:56 Cloudy with Mist and Fog 47 8.3 N/A N/A NW 8 13 30.22 1023 2 2 0.00 0.00
3:45 pm 15:45 Cloudy with Mist and Fog 46 8 N/A N/A WNW 8 13 30.25 1024 3 4 0.00 0.00
3:56 pm 15:56 Cloudy with Mist and Fog 47 8.3 N/A N/A NW 7 11 30.25 1024 3 4 0.00 0.00
4:08 pm 16:08 Cloudy with Mist and Fog 46 8 N/A N/A NW 6 9 30.26 1025 3 5 0.00 0.00
4:56 pm 16:56 Cloudy with Haze 46 7.8 N/A N/A NW 5 7 30.27 1025 6 10 0.00 0.00
5:56 pm 17:56 Cloudy 46 7.8 N/A N/A WNW 7 11 30.30 1026 8 13 0.00 0.00
6:56 pm 18:56 Cloudy with Haze 46 7.8 N/A N/A NW 8 13 30.32 1027 6 10 0.00 0.00
7:56 pm 19:56 Cloudy 45 7.2 N/A N/A NNW 9 15 30.33 1027 10 16 0.00 0.00
8:56 pm 20:56 Cloudy 44 6.7 N/A N/A NNW 9 15 30.34 1028 9 14 0.00 0.00
9:52 pm 21:52 Cloudy 45 7 N/A N/A N 6 9 30.36 1028 10 16 0.00 0.00
9:56 pm 21:56 Cloudy 44 6.7 N/A N/A N 6 9 30.35 1028 10 16 0.00 0.00
10:26 pm 22:26 Cloudy 45 7 N/A N/A Calm 30.36 1028 9 14 0.00 0.00
10:56 pm 22:56 Cloudy 44 6.7 N/A N/A Calm 30.36 1028 10 16 0.00 0.00
11:56 pm 23:56 Cloudy 44 6.7 N/A N/A NE 5 7 30.36 1028 10 16 0.00 0.00

Powered by AerisWeather